Location: Newark
(45.0333°N, 18.2865°E)
Time: 21:10:27
(UTC+00:00)

N. Korean satellite - Pass Details

Date: 25 September 2021
Orbit: 450 x 495 km, 97.3° (Epoch: 21 October)

Event Time Altitude Azimuth Distance (km) Brightness Sun altitude
Rises 03:31:18 0° 22° (NNE) 2,526 10.7 -12.5°
Reaches altitude 10° 03:33:32 10° 34° (NE) 1,652 9.9 -12.1°
Maximum altitude 03:36:41 29° 97° (E) 897 8.7 -11.5°
Drops below altitude 10° 03:39:51 10° 159° (SSE) 1,661 9.4 -11.0°
Sets 03:42:06 0° 171° (S) 2,544 10.2 -10.6°
